Zurück zum Katalog

COSMOS 2499 DEB

AktivPO
NORAD 55719·DEBRIS·🇷🇺 Russia

Gestartet May 23, 2014 von Plesetsk Cosmodrome

Loading…

Nächste Überflüge (nächste 24 Stunden)

TLE

AlterndSource: Space-Track

Epoche: Sep 7, 2026, 12:40 UTC

1 55719U 14028AF  26250.52826265  .00004389  00000-0  14171-1 0  9992
2 55719  82.3774 182.1660 0218823 108.6540 253.8463 12.94187337172233

Verfolge COSMOS 2499 DEB in Echtzeit mit AllMySat

Download on the App Store